Weather History for KACQ - September, 2013

Change the Weather History Date:

Tuesday, September 17, 2013

  Actual Average Record
Temperature  
Mean Temperature 53 °F -  
Max Temperature 60 °F 70 °F 94 °F (1955)
Min Temperature 46 °F 47 °F 27 °F (1916)
Degree Days  
Heating Degree Days 12    
Growing Degree Days 3 (Base 50)    
Moisture  
Dew Point 51 °F    
Average Humidity 85    
Maximum Humidity 100    
Minimum Humidity 72    
Precipitation  
Precipitation 0.01 in - - ()
Sea Level Pressure  
Sea Level Pressure 30.14 in    
Wind  
Wind Speed 9 mph (SE)    
Max Wind Speed 16 mph    
Max Gust Speed 23 mph    
Visibility 8 miles    
Events Rain    
Averages and records for this station are not official NWS values.
T = Trace of Precipitation, MM = Missing Value Source: NWS Daily Summary

Daily Weather History Graph

Daily Weather History Graph

Search for Another Location

Airport or City:

Trip Planner

Search our weather history database for the weather conditions in past years. The results will help you decide how hot, cold, wet, or windy it might be!

Date:

Astronomy

Sep. 17, 2013 Rise Set
Actual Time 6:55 AM CDT 7:20 PM CDT
Civil Twilight 6:26 AM CDT 7:49 PM CDT
Nautical Twilight 5:52 AM CDT 8:23 PM CDT
Astronomical Twilight 5:17 AM CDT 8:58 PM CDT
Moon 6:09 PM CDT (9/17) 4:48 AM CDT (9/17)
Length of Visible Light 13h 22m
Length of Day
12h 24m
Waxing Gibbous, 96% of the Moon is Illuminated
Sep 17
Waxing Gibbous
Sep 19
Full
Sep 26
Last Quarter
Oct 4
New
Oct 11
First Quarter

Hourly Weather History & Observations

Time (CDT) Temp. Windchill Dew Point Humidity Pressure Visibility Wind Dir Wind Speed Gust Speed Precip Events Conditions
12:13 AM 50.0 °F - 46.4 °F 87% 30.28 in 10.0 mi SE 6.9 mph - N/A   Clear
12:33 AM 48.2 °F - 44.6 °F 87% 30.28 in 10.0 mi SE 6.9 mph - N/A   Clear
12:53 AM 48.2 °F - 44.6 °F 87% 30.28 in 10.0 mi SE 6.9 mph - N/A   Clear
1:13 AM 48.2 °F - 44.6 °F 87% 30.28 in 10.0 mi SE 6.9 mph - N/A   Clear
1:33 AM 48.2 °F - 44.6 °F 87% 30.28 in 10.0 mi SE 5.8 mph - N/A   Clear
1:54 AM 46.4 °F 43.5 °F 42.8 °F 87% 30.27 in 10.0 mi SE 5.8 mph - N/A   Clear
2:13 AM 46.4 °F 42.9 °F 42.8 °F 87% 30.27 in 10.0 mi SE 6.9 mph - N/A   Clear
2:33 AM 46.4 °F 42.9 °F 42.8 °F 87% 30.26 in 10.0 mi SE 6.9 mph - N/A   Clear
2:54 AM 46.4 °F 42.9 °F 42.8 °F 87% 30.26 in 10.0 mi SE 6.9 mph - N/A   Clear
3:13 AM 46.4 °F 42.9 °F 42.8 °F 87% 30.26 in 10.0 mi ESE 6.9 mph - N/A   Clear
3:34 AM 46.4 °F 42.9 °F 42.8 °F 87% 30.25 in 10.0 mi ESE 6.9 mph - N/A   Clear
3:53 AM 46.4 °F 42.4 °F 42.8 °F 87% 30.25 in 10.0 mi ESE 8.1 mph - N/A   Clear
4:13 AM 46.4 °F 42.4 °F 42.8 °F 87% 30.24 in 10.0 mi ESE 8.1 mph - N/A   Clear
4:34 AM 46.4 °F 42.4 °F 42.8 °F 87% 30.24 in 10.0 mi ESE 8.1 mph - N/A   Clear
4:54 AM 46.4 °F 42.4 °F 42.8 °F 87% 30.23 in 10.0 mi ESE 8.1 mph - N/A   Clear
5:13 AM 46.4 °F 42.4 °F 42.8 °F 87% 30.23 in 10.0 mi ESE 8.1 mph - N/A   Scattered Clouds
5:33 AM 46.4 °F 42.4 °F 42.8 °F 87% 30.23 in 10.0 mi ESE 8.1 mph - N/A   Scattered Clouds
5:53 AM 48.2 °F - 44.6 °F 87% 30.23 in 10.0 mi ESE 9.2 mph - N/A   Overcast
6:14 AM 50.0 °F - 46.4 °F 87% 30.23 in 10.0 mi SE 9.2 mph - N/A   Overcast
6:33 AM 50.0 °F - 46.4 °F 87% 30.23 in 10.0 mi SE 10.4 mph - N/A   Overcast
6:53 AM 50.0 °F - 46.4 °F 87% 30.23 in 10.0 mi SE 10.4 mph - N/A   Overcast
7:13 AM 50.0 °F - 46.4 °F 87% 30.23 in 10.0 mi SE 11.5 mph - N/A   Overcast
7:34 AM 53.6 °F - 50.0 °F 88% 30.23 in 10.0 mi SE 10.4 mph - N/A   Overcast
7:54 AM 53.6 °F - 50.0 °F 88% 30.22 in 10.0 mi SE 11.5 mph - N/A   Overcast
8:13 AM 53.6 °F - 50.0 °F 88% 30.22 in 10.0 mi SE 12.7 mph - N/A   Overcast
8:33 AM 53.6 °F - 50.0 °F 88% 30.21 in 10.0 mi SE 12.7 mph - N/A   Overcast
8:54 AM 53.6 °F - 50.0 °F 88% 30.20 in 10.0 mi SE 11.5 mph 19.6 mph N/A   Overcast
9:13 AM 53.6 °F - 48.2 °F 82% 30.20 in 10.0 mi SE 13.8 mph 17.3 mph N/A   Scattered Clouds
9:33 AM 53.6 °F - 50.0 °F 88% 30.20 in 10.0 mi SE 11.5 mph 17.3 mph N/A   Clear
9:54 AM 55.4 °F - 50.0 °F 82% 30.20 in 10.0 mi SE 12.7 mph - N/A   Clear
10:14 AM 59.0 °F - 51.8 °F 77% 30.19 in 10.0 mi SSE 12.7 mph - N/A   Clear
10:33 AM 59.0 °F - 51.8 °F 77% 30.19 in 10.0 mi SSE 11.5 mph 17.3 mph N/A   Clear
10:53 AM 60.8 °F - 51.8 °F 72% 30.18 in 10.0 mi SSE 12.7 mph 16.1 mph N/A   Clear
11:13 AM 60.8 °F - 53.6 °F 77% 30.18 in 10.0 mi SSE 11.5 mph 18.4 mph N/A   Clear
11:33 AM 60.8 °F - 51.8 °F 72% 30.17 in 10.0 mi SSE 15.0 mph 20.7 mph N/A   Clear
11:53 AM 60.8 °F - 51.8 °F 72% 30.16 in 10.0 mi SSE 13.8 mph 17.3 mph N/A   Scattered Clouds
12:13 PM 60.8 °F - 51.8 °F 72% 30.16 in 10.0 mi SSE 15.0 mph 20.7 mph N/A   Overcast
12:34 PM 60.8 °F - 51.8 °F 72% 30.15 in 10.0 mi SSE 12.7 mph 20.7 mph N/A   Overcast
12:53 PM 60.8 °F - 51.8 °F 72% 30.14 in 10.0 mi SE 11.5 mph 19.6 mph N/A   Overcast
1:13 PM 60.8 °F - 51.8 °F 72% 30.13 in 10.0 mi SSE 16.1 mph 23.0 mph N/A   Overcast
1:34 PM 60.8 °F - 51.8 °F 72% 30.12 in 10.0 mi SSE 16.1 mph 20.7 mph N/A   Overcast
1:53 PM 60.8 °F - 51.8 °F 72% 30.11 in 10.0 mi SSE 16.1 mph 21.9 mph N/A   Overcast
2:14 PM 60.8 °F - 51.8 °F 72% 30.11 in 10.0 mi SSE 12.7 mph 17.3 mph N/A   Overcast
2:34 PM 60.8 °F - 51.8 °F 72% 30.10 in 10.0 mi SSE 12.7 mph 19.6 mph N/A   Overcast
2:53 PM 60.8 °F - 53.6 °F 77% 30.09 in 10.0 mi SSE 11.5 mph 19.6 mph N/A   Overcast
3:13 PM 60.8 °F - 53.6 °F 77% 30.08 in 10.0 mi SE 16.1 mph 21.9 mph N/A   Overcast
3:34 PM 59.0 °F - 53.6 °F 82% 30.08 in 3.0 mi SE 10.4 mph 19.6 mph N/A   Light Drizzle
3:54 PM 59.0 °F - 53.6 °F 82% 30.07 in 4.0 mi SE 13.8 mph 18.4 mph N/A   Overcast
4:13 PM 59.0 °F - 53.6 °F 82% 30.06 in 7.0 mi SE 15.0 mph - N/A   Overcast
4:34 PM 59.0 °F - 55.4 °F 88% 30.05 in 3.0 mi SE 10.4 mph 17.3 mph N/A   Light Drizzle
4:54 PM 59.0 °F - 55.4 °F 88% 30.05 in 10.0 mi SE 10.4 mph 17.3 mph N/A   Overcast
5:14 PM 59.0 °F - 55.4 °F 88% 30.04 in 7.0 mi ESE 10.4 mph - N/A   Overcast
5:33 PM 59.0 °F - 55.4 °F 88% 30.04 in 7.0 mi SE 11.5 mph 18.4 mph N/A   Overcast
5:54 PM 59.0 °F - 55.4 °F 88% 30.03 in 10.0 mi SE 11.5 mph 17.3 mph N/A   Overcast
6:14 PM 59.0 °F - 55.4 °F 88% 30.03 in 4.0 mi SE 11.5 mph 21.9 mph N/A   Light Drizzle
6:34 PM 59.0 °F - 55.4 °F 88% 30.03 in 3.0 mi SE 10.4 mph - N/A   Overcast
6:54 PM 59.0 °F - 55.4 °F 88% 30.01 in 5.0 mi SE 12.7 mph 17.3 mph N/A   Overcast
7:14 PM 59.0 °F - 55.4 °F 88% 30.00 in 7.0 mi SE 13.8 mph 17.3 mph N/A   Overcast
7:34 PM 59.0 °F - 55.4 °F 88% 30.00 in 7.0 mi SE 10.4 mph 17.3 mph N/A   Overcast
7:54 PM 59.0 °F - 55.4 °F 88% 30.00 in 7.0 mi SSE 9.2 mph 16.1 mph N/A Rain Rain
8:14 PM 59.0 °F - 55.4 °F 88% 30.00 in 5.0 mi SSE 9.2 mph 17.3 mph N/A   Overcast
8:33 PM 59.0 °F - 55.4 °F 88% 30.00 in 5.0 mi SSE 9.2 mph - N/A   Overcast
8:54 PM 59.0 °F - 55.4 °F 88% 30.01 in 4.0 mi SSE 10.4 mph 16.1 mph N/A   Overcast
9:14 PM 59.0 °F - 55.4 °F 88% 30.00 in 2.5 mi SSE 6.9 mph - N/A Rain Light Rain
9:34 PM 59.0 °F - 55.4 °F 88% 29.99 in 4.0 mi SSE 10.4 mph - N/A   Overcast
9:53 PM 59.0 °F - 55.4 °F 88% 29.99 in 4.0 mi SE 10.4 mph - N/A   Overcast
10:14 PM 59.0 °F - 57.2 °F 94% 29.98 in 3.0 mi SE 9.2 mph - N/A   Overcast
10:34 PM 59.0 °F - 57.2 °F 94% 29.98 in 3.0 mi SE 8.1 mph - N/A   Overcast
10:53 PM 59.0 °F - 57.2 °F 94% 29.98 in 2.5 mi SSE 6.9 mph - N/A   Overcast
11:13 PM 59.0 °F - 59.0 °F 100% 29.98 in 2.0 mi SSE 6.9 mph - N/A Rain Rain
11:33 PM 60.8 °F - 59.0 °F 94% 29.98 in 2.0 mi SSE 6.9 mph - N/A   Drizzle
11:53 PM 60.8 °F - 59.0 °F 94% 29.97 in 2.0 mi SSE 5.8 mph - 0.01 in Rain Light Rain